Osceola Municipal, IA

8:29 PM CDT on September 25, 2017 (GMT -0500)
Osceola Municipal

Weather History for KI75 - June, 2013

Change the Weather History Date:

Saturday, June 15, 2013

  Actual Average (KCNC) Record (KCNC)
Temperature  
Mean Temperature 72 °F -  
Max Temperature 82 °F 81 °F 96 °F (2016)
Min Temperature 63 °F 59 °F 43 °F (1969)
Cooling Degree Days 8    
Growing Degree Days 22 (Base 50)    
Moisture  
Dew Point 65 °F    
Average Humidity 83    
Maximum Humidity 92    
Minimum Humidity 65    
Precipitation  
Precipitation 0.23 in - - ()
Sea Level Pressure  
Sea Level Pressure 29.94 in    
Wind  
Wind Speed 9 mph (South)    
Max Wind Speed 21 mph    
Max Gust Speed 28 mph    
Visibility 10 miles    
Events Rain    
Averages and records for this station are not official NWS values.
T = Trace of Precipitation, MM = Missing Value Source: NWS Daily Summary

Daily Weather History Graph

Daily Weather History Graph

Search for Another Location

Airport or City:

Trip Planner

Search our weather history database for the weather conditions in past years. The results will help you decide how hot, cold, wet, or windy it might be!

Date:

Astronomy

Jun. 15, 2013 Rise Set
Actual Time 5:41 AM CDT 8:48 PM CDT
Civil Twilight 5:08 AM CDT 9:22 PM CDT
Nautical Twilight 4:25 AM CDT 10:05 PM CDT
Astronomical Twilight 3:34 AM CDT 10:56 PM CDT
Moon 12:20 PM CDT (6/15) 12:22 AM CDT (6/15)
Length of Visible Light 16h 14m
Length of Day
15h 07m
Waxing Crescent, 40% of the Moon is Illuminated
Jun 15
Waxing Crescent
Jun 16
First Quarter
Jun 23
Full
Jun 29
Last Quarter
Jul 8
New

Hourly Weather History & Observations

Time (CDT) Temp. Heat Index Dew Point Humidity Pressure Visibility Wind Dir Wind Speed Gust Speed Precip Events Conditions
12:35 AM 64.8 °F - 61.7 °F 90% 30.03 in 7.0 mi NNW 9.2 mph 16.1 mph 0.03 in Rain Rain
12:55 AM 66.2 °F - 61.0 °F 83% 30.03 in 10.0 mi North 10.4 mph - 0.08 in Rain Rain
1:15 AM 66.7 °F - 60.8 °F 81% 30.01 in 10.0 mi NE 11.5 mph - 0.03 in Rain Light Rain
1:35 AM 65.8 °F - 61.0 °F 84% 29.96 in 10.0 mi East 10.4 mph - 0.06 in Rain Rain
1:55 AM 65.7 °F - 61.2 °F 85% 29.96 in 10.0 mi ENE 9.2 mph - 0.07 in Rain Light Rain
2:15 AM 66.2 °F - 60.8 °F 83% 29.93 in 10.0 mi ENE 10.4 mph 18.4 mph N/A Rain Light Rain
2:35 AM 65.8 °F - 60.8 °F 84% 29.93 in 10.0 mi Calm Calm - N/A   Light Drizzle
2:55 AM 64.4 °F - 61.0 °F 89% 29.93 in 10.0 mi SSW 5.8 mph - N/A   Clear
3:15 AM 64.4 °F - 61.0 °F 89% 29.92 in 10.0 mi SSW 4.6 mph - N/A   Scattered Clouds
3:35 AM 64.4 °F - 60.8 °F 88% 29.91 in 10.0 mi Calm Calm - N/A   Mostly Cloudy
3:55 AM 63.9 °F - 61.0 °F 90% 29.91 in 10.0 mi Calm Calm - N/A   Mostly Cloudy
4:15 AM 63.9 °F - 61.2 °F 91% 29.92 in 10.0 mi Calm Calm - N/A   Mostly Cloudy
4:35 AM 64.2 °F - 61.2 °F 90% 29.91 in 10.0 mi Calm Calm - N/A   Mostly Cloudy
4:55 AM 64.0 °F - 61.2 °F 90% 29.90 in 10.0 mi South 5.8 mph - N/A   Overcast
5:15 AM 64.2 °F - 61.0 °F 89% 29.90 in 10.0 mi South 5.8 mph - N/A   Mostly Cloudy
5:35 AM 63.9 °F - 60.8 °F 90% 29.91 in 10.0 mi South 8.1 mph - N/A   Scattered Clouds
5:55 AM 63.5 °F - 60.8 °F 91% 29.91 in 10.0 mi South 10.4 mph - N/A   Scattered Clouds
6:15 AM 63.5 °F - 60.8 °F 91% 29.91 in 10.0 mi South 10.4 mph - 0.01 in   Scattered Clouds
6:35 AM 63.5 °F - 61.0 °F 91% 29.92 in 10.0 mi South 10.4 mph - 0.01 in   Scattered Clouds
6:55 AM 63.9 °F - 61.3 °F 91% 29.92 in 10.0 mi South 9.2 mph - 0.01 in   Clear
7:15 AM 64.8 °F - 61.7 °F 90% 29.92 in 10.0 mi SSE 9.2 mph - N/A   Clear
7:35 AM 66.0 °F - 62.2 °F 88% 29.93 in 10.0 mi South 12.7 mph 17.3 mph N/A   Clear
7:55 AM 67.1 °F - 62.8 °F 86% 29.92 in 10.0 mi South 10.4 mph - N/A   Clear
8:15 AM 69.1 °F - 63.5 °F 82% 29.94 in 10.0 mi South 13.8 mph 18.4 mph N/A   Clear
8:35 AM 69.6 °F - 63.5 °F 81% 29.94 in 10.0 mi South 13.8 mph 20.7 mph N/A   Scattered Clouds
8:55 AM 69.8 °F - 63.5 °F 80% 29.94 in 10.0 mi South 11.5 mph - N/A   Mostly Cloudy
9:15 AM 70.2 °F - 64.2 °F 81% 29.94 in 10.0 mi South 10.4 mph - N/A   Mostly Cloudy
9:35 AM 71.4 °F - 64.9 °F 80% 29.96 in 10.0 mi South 11.5 mph - N/A   Mostly Cloudy
9:55 AM 73.4 °F - 66.0 °F 78% 29.94 in 10.0 mi South 20.7 mph 26.5 mph N/A   Scattered Clouds
10:15 AM 74.7 °F - 66.9 °F 77% 29.94 in 10.0 mi South 19.6 mph 27.6 mph N/A   Clear
10:35 AM 75.4 °F - 67.3 °F 76% 29.93 in 10.0 mi South 16.1 mph 25.3 mph N/A   Clear
10:55 AM 74.5 °F - 67.5 °F 79% 29.93 in 10.0 mi South 12.7 mph 19.6 mph N/A   Clear
11:15 AM 77.2 °F - 69.3 °F 76% 29.92 in 10.0 mi South 12.7 mph 17.3 mph N/A   Clear
11:35 AM 78.1 °F - 69.4 °F 75% 29.92 in 10.0 mi SSW 13.8 mph 20.7 mph N/A   Clear
11:55 AM 80.1 °F 82.9 °F 69.3 °F 69% 29.93 in 10.0 mi SSW 19.6 mph - N/A   Clear
12:15 PM 79.9 °F - 70.0 °F 72% 29.94 in 10.0 mi SW 15.0 mph - N/A   Clear
12:35 PM 81.1 °F 84.9 °F 70.3 °F 70% 29.94 in 10.0 mi SW 11.5 mph 19.6 mph N/A   Clear
12:55 PM 82.4 °F 86.5 °F 70.5 °F 67% 29.95 in - SW 11.5 mph - N/A   Unknown
1:15 PM 82.4 °F 86.1 °F 69.6 °F 65% 29.94 in 10.0 mi SW 11.5 mph - N/A   Clear
1:35 PM 81.1 °F 84.2 °F 68.7 °F 66% 29.94 in 10.0 mi SSW 10.4 mph 16.1 mph N/A   Clear
1:55 PM 80.6 °F 84.1 °F 70.3 °F 71% 29.95 in 10.0 mi SSW 10.4 mph - N/A   Unknown
2:15 PM 79.3 °F - 69.3 °F 71% 29.95 in 10.0 mi SW 10.4 mph - N/A   Clear
2:35 PM 79.0 °F - 69.6 °F 73% 29.94 in 10.0 mi WSW 8.1 mph - N/A   Clear
2:55 PM 78.8 °F - 69.6 °F 73% 29.93 in 10.0 mi WNW 8.1 mph - N/A   Mostly Cloudy
3:15 PM 78.8 °F - 70.0 °F 74% 29.89 in 10.0 mi North 5.8 mph - N/A   Scattered Clouds
3:35 PM 79.2 °F - 69.8 °F 73% 29.93 in 10.0 mi SW 9.2 mph - N/A   Clear
3:55 PM 78.1 °F - 69.8 °F 76% 29.91 in 10.0 mi WSW 6.9 mph - N/A   Clear
4:15 PM 77.2 °F - 70.0 °F 78% 29.95 in 10.0 mi SSW 9.2 mph - N/A   Mostly Cloudy
4:35 PM 75.7 °F - 70.0 °F 82% 29.96 in 7.0 mi SW 11.5 mph 18.4 mph 0.01 in Rain Rain
4:55 PM 71.1 °F - 66.0 °F 84% 29.97 in 10.0 mi SSW 13.8 mph 19.6 mph 0.04 in Rain Light Rain
5:15 PM 70.5 °F - 66.0 °F 86% 29.91 in 10.0 mi ENE 6.9 mph - N/A Rain Light Rain
5:35 PM 71.6 °F - 66.2 °F 83% 29.88 in 10.0 mi North 3.5 mph - N/A   Light Drizzle
5:55 PM 71.8 °F - 66.7 °F 84% 29.89 in 10.0 mi NW 4.6 mph - N/A   Scattered Clouds
6:15 PM 72.1 °F - 65.7 °F 80% 29.89 in 10.0 mi Calm Calm - N/A   Scattered Clouds
6:35 PM 72.0 °F - 66.7 °F 84% 29.91 in 10.0 mi South 10.4 mph - N/A   Mostly Cloudy
6:55 PM 70.3 °F - 66.0 °F 86% 29.92 in 10.0 mi SSE 6.9 mph - N/A Rain Light Rain
7:15 PM 69.1 °F - 65.3 °F 88% 29.96 in 10.0 mi South 20.7 mph 24.2 mph 0.01 in Rain Light Rain
7:35 PM 67.6 °F - 64.4 °F 89% 29.97 in 7.0 mi SSE 17.3 mph 27.6 mph 0.03 in Rain Light Rain
7:55 PM 67.6 °F - 64.4 °F 89% 29.98 in 10.0 mi South 13.8 mph - 0.03 in   Overcast
8:15 PM 67.6 °F - 64.8 °F 90% 29.97 in 10.0 mi SSE 16.1 mph - N/A   Overcast
8:35 PM 67.5 °F - 64.8 °F 91% 29.97 in 10.0 mi SSE 12.7 mph - N/A   Overcast
8:55 PM 66.6 °F - 63.7 °F 90% 29.97 in 10.0 mi SSE 11.5 mph - N/A   Overcast
9:15 PM 66.2 °F - 63.5 °F 91% 29.97 in 10.0 mi SSE 8.1 mph - N/A   Overcast
9:35 PM 65.8 °F - 63.1 °F 91% 29.97 in 10.0 mi SSE 9.2 mph - N/A   Overcast
9:55 PM 65.8 °F - 63.5 °F 92% 29.96 in 10.0 mi SSE 9.2 mph - N/A   Overcast
10:15 PM 65.7 °F - 63.1 °F 92% 29.96 in 10.0 mi SSE 6.9 mph - N/A   Overcast
10:35 PM 65.5 °F - 63.1 °F 92% 29.97 in 10.0 mi SSE 5.8 mph - N/A   Overcast
10:55 PM 65.3 °F - 63.0 °F 92% 29.97 in 10.0 mi South 8.1 mph - N/A   Mostly Cloudy
11:15 PM 65.3 °F - 62.8 °F 92% 29.96 in 10.0 mi South 6.9 mph - N/A   Mostly Cloudy
11:35 PM 65.3 °F - 62.8 °F 92% 29.96 in 10.0 mi South 5.8 mph - N/A   Overcast
11:55 PM 65.3 °F - 63.0 °F 92% 29.96 in 10.0 mi South 9.2 mph - N/A   Overcast